Location: Daouli
(14.8671°N, 3.2030°W)
Time: 02:30:48
(UTC+00:00)

Cosmos 1408 - Pass Details

Date: 29 October 2020
Orbit: 470 x 492 km, 82.6° (Epoch: 02 December)

Event Time Altitude Azimuth Distance (km) Brightness Sun altitude
Rises 18:21:11 0° 19° (NNE) 2,552 5.9 -9.3°
Reaches altitude 10° 18:23:47 10° 38° (NE) 1,674 4.8 -9.9°
Maximum altitude 18:26:22 18° 83° (E) 1,251 4.0 -10.6°
Drops below altitude 10° 18:28:57 10° 128° (SE) 1,678 4.9 -11.2°
Sets 18:31:33 0° 147° (SSE) 2,561 6.0 -11.8°
